Location: Buisson
(44.2787°N, 4.9969°E)
Time: 02:11:46
(UTC+00:00)

Cosmos 1378 Rocket - Pass Details

Date: 18 April 2021
Orbit: 600 x 628 km, 82.5° (Epoch: 07 May)

Event Time Altitude Azimuth Distance (km) Brightness Sun altitude
Exits shadow 03:30:22 - 177° (S) 2,910 6.7 -14.1°
Rises 03:30:24 0° 177° (S) 2,897 6.7 -14.1°
Reaches altitude 10° 03:32:39 10° 174° (S) 1,993 5.9 -13.7°
Maximum altitude 03:36:59 59° 95° (E) 720 4.1 -13.1°
Drops below altitude 10° 03:41:20 10° 16° (NNE) 1,995 6.8 -12.4°
Sets 03:43:35 0° 13° (NNE) 2,901 7.7 -12.0°
